Regional Weather Roundup
Issued by NWS Charleston, WV

Home | Current Version | Previous Version | Graphics & Text | Print | Product List | Glossary On
Versions: 1 2 3 4 5 6 7 8 9 10 11 12 13 14 15 16 17 18 19 20 21 22 23 24 25 26 27 28 29 30 31 32 33 34 35 36 37 38 39 40 41 42 43 44 45 46 47 48 49 50
000
ASUS41 KRLX 300710
RWRRLX
West Virginia Regional Weather Roundup
National Weather Service Charleston WV
300 AM EDT TUE JUN 30 2015

Note: "fair" indicates few or no clouds below 12,000 feet with no
significant weather and/or obstructions to visibility.

WVZ003-300800-
Northern Panhandle of West Virginia

CITY           SKY/WX    TMP DP  RH WIND       PRES   REMARKS
WHEELING       CLOUDY    63  61  93 S5        29.83F
$$

WVZ009-300800-
Northwest West Virginia

CITY           SKY/WX    TMP DP  RH WIND       PRES   REMARKS
PARKERSBURG    NOT AVBL
$$

WVZ006-300800-
Western West Virginia

CITY           SKY/WX    TMP DP  RH WIND       PRES   REMARKS
HUNTINGTON     MOCLDY    65  65 100 W5        29.85F
$$

WVZ015-300800-
West Central West Virginia

CITY           SKY/WX    TMP DP  RH WIND       PRES   REMARKS
CHARLESTON     CLOUDY    66  65  96 CALM      29.86S
$$

WVZ022-031-300800-
North Central West Virginia

CITY           SKY/WX    TMP DP  RH WIND       PRES   REMARKS
CLARKSBURG     CLOUDY    64  62  93 S3        29.86F
MORGANTOWN     LGT RAIN  67  60  78 VRB5      29.87S
$$

WVZ025-035-042-045-300800-
Southern West Virginia

CITY           SKY/WX    TMP DP  RH WIND       PRES   REMARKS
BECKLEY        CLOUDY    68  59  73 S9        29.96S
LOGAN          CLOUDY    70  64  83 CALM      29.87S
BLUEFIELD      CLOUDY    68  59  73 SW9       29.99F
LEWISBURG      MOCLDY    63  60  91 CALM      29.96S
$$

WVZ047-300800-
Northern Mountains of West Virginia

CITY           SKY/WX    TMP DP  RH WIND       PRES   REMARKS
ELKINS         LGT RAIN  63  60  90 CALM      29.93S
$$

WVZ052-300800-
Eastern Panhandle of West Virginia

CITY           SKY/WX    TMP DP  RH WIND       PRES   REMARKS
MARTINSBURG    MOCLDY    67  60  78 CALM      29.90F
PETERSBURG     CLOUDY    66  59  79 CALM      29.88F
$$


USA.gov is the U.S. government's official web portal to all federal, state and local government web resources and services.